| time (UTC) | temp F | wind direction | speed MPH | gust MPH | rain 1hr in | rain 24hr in | rain mn in | humidity % | barometer mb |
| 20260506120043 | 0 | 0.0 | 0.0 | 0.00 | 0.00 | 0.00 | 1013.1 | ||
| 20260506114538 | 0 | 0.0 | 0.0 | 0.00 | 0.00 | 0.00 | 1013.1 | ||
| 20260506113034 | 0 | 0.0 | 0.0 | 0.00 | 0.00 | 0.00 | 1013.0 | ||
| 20260506111530 | 0 | 0.0 | 0.0 | 0.00 | 0.00 | 0.00 | 1013.0 | ||
| 20260506110026 | 0 | 0.0 | 0.0 | 0.00 | 0.00 | 0.00 | 1012.9 | ||
| 20260506104521 | 0 | 0.0 | 0.0 | 0.00 | 0.00 | 0.00 | 1012.9 | ||
| 20260506103025 | 0 | 0.0 | 0.0 | 0.00 | 0.00 | 0.00 | 1012.9 | ||
| 20260506101512 | 0 | 0.0 | 0.0 | 0.00 | 0.00 | 0.00 | 1012.8 | ||
| 20260506100010 | 0 | 0.0 | 0.0 | 0.00 | 0.00 | 0.00 | 1012.7 | ||
| 20260506094503 | 63 | 126 | 7.0 | 23.0 | 0.00 | 0.00 | 0.00 | 50 | 1012.8 |
| 20260506093058 | 64 | 112 | 12.0 | 23.0 | 0.00 | 0.00 | 0.00 | 50 | 1012.8 |
| 20260506091558 | 64 | 142 | 7.0 | 24.0 | 0.00 | 0.00 | 0.00 | 50 | 1012.8 |
| 20260506090056 | 64 | 115 | 15.0 | 27.0 | 0.00 | 0.00 | 0.00 | 49 | 1012.8 |
| 20260506084553 | 65 | 113 | 12.0 | 27.0 | 0.00 | 0.00 | 0.00 | 48 | 1012.8 |
| 20260506083052 | 65 | 119 | 14.0 | 23.0 | 0.00 | 0.00 | 0.00 | 48 | 1012.9 |
| 20260506081555 | 65 | 142 | 16.0 | 27.0 | 0.00 | 0.00 | 0.00 | 48 | 1012.8 |
| 20260506073043 | 66 | 151 | 16.0 | 25.0 | 0.00 | 0.00 | 0.00 | 47 | 1012.9 |
| 20260506071546 | 66 | 115 | 15.0 | 27.0 | 0.00 | 0.00 | 0.00 | 46 | 1012.8 |
| 20260506061533 | 66 | 140 | 16.0 | 26.0 | 0.00 | 0.00 | 0.00 | 45 | 1012.1 |
| 20260506044524 | 68 | 153 | 10.0 | 26.0 | 0.00 | 0.00 | 0.00 | 43 | 1011.4 |
| 20260506043023 | 68 | 124 | 13.0 | 23.0 | 0.00 | 0.00 | 0.00 | 42 | 1011.1 |
| 20260506041523 | 68 | 121 | 9.0 | 24.0 | 0.00 | 0.00 | 0.00 | 42 | 1010.8 |
| 20260506040022 | 69 | 134 | 15.0 | 23.0 | 0.00 | 0.00 | 0.00 | 41 | 1010.4 |
| 20260506034521 | 69 | 117 | 16.0 | 28.0 | 0.00 | 0.00 | 0.00 | 40 | 1010.3 |
| 20260506033020 | 70 | 119 | 10.0 | 24.0 | 0.00 | 0.00 | 0.00 | 39 | 1010.2 |
| 20260506031519 | 70 | 123 | 9.0 | 26.0 | 0.00 | 0.00 | 0.00 | 39 | 1010.1 |
| 20260506030027 | 71 | 119 | 14.0 | 23.0 | 0.00 | 0.00 | 0.00 | 38 | 1009.7 |
| 20260506024534 | 71 | 144 | 10.0 | 27.0 | 0.00 | 0.00 | 0.00 | 37 | 1009.3 |
| 20260506023017 | 72 | 110 | 13.0 | 30.0 | 0.00 | 0.00 | 0.00 | 36 | 1009.0 |
| 20260506021517 | 72 | 360 | 18.0 | 26.0 | 0.00 | 0.00 | 0.00 | 34 | 1008.8 |
| 20260506020016 | 74 | 360 | 11.0 | 22.0 | 0.00 | 0.00 | 0.00 | 32 | 1008.5 |
| 20260506014519 | 75 | 360 | 9.0 | 26.0 | 0.00 | 0.00 | 0.00 | 30 | 1008.5 |
| 20260506013015 | 76 | 360 | 10.0 | 22.0 | 0.00 | 0.00 | 0.00 | 28 | 1008.2 |
| 20260506011514 | 76 | 360 | 13.0 | 24.0 | 0.00 | 0.00 | 0.00 | 27 | 1008.1 |
| 20260506010014 | 77 | 360 | 9.0 | 22.0 | 0.00 | 0.00 | 0.00 | 26 | 1008.0 |
| 20260506004513 | 77 | 360 | 10.0 | 18.0 | 0.00 | 0.00 | 0.00 | 24 | 1008.1 |
| 20260506003016 | 78 | 360 | 6.0 | 16.0 | 0.00 | 0.00 | 0.00 | 23 | 1007.9 |
| 20260506001511 | 78 | 360 | 10.0 | 17.0 | 0.00 | 0.00 | 0.00 | 23 | 1007.9 |
| 20260506000011 | 78 | 360 | 9.0 | 19.0 | 0.00 | 0.00 | 0.00 | 23 | 1008.1 |
| 20260505234514 | 78 | 360 | 7.0 | 18.0 | 0.00 | 0.00 | 0.00 | 24 | 1008.0 |
| 20260505233012 | 78 | 360 | 4.0 | 13.0 | 0.00 | 0.00 | 0.00 | 24 | 1008.0 |
| 20260505231509 | 79 | 360 | 11.0 | 17.0 | 0.00 | 0.00 | 0.00 | 24 | 1008.2 |
| 20260505230021 | 79 | 360 | 6.0 | 12.0 | 0.00 | 0.00 | 0.00 | 24 | 1008.3 |
| 20260505224506 | 78 | 360 | 5.0 | 16.0 | 0.00 | 0.00 | 0.00 | 25 | 1008.3 |
| 20260505223004 | 79 | 360 | 12.0 | 19.0 | 0.00 | 0.00 | 0.00 | 24 | 1008.6 |
| 20260505221503 | 77 | 155 | 6.0 | 13.0 | 0.00 | 0.00 | 0.00 | 25 | 1008.9 |
| 20260505220059 | 78 | 360 | 4.0 | 14.0 | 0.00 | 0.00 | 0.00 | 25 | 1009.0 |
| 20260505214557 | 78 | 360 | 2.0 | 14.0 | 0.00 | 0.00 | 0.00 | 26 | 1009.3 |
| 20260505213101 | 78 | 360 | 3.0 | 19.0 | 0.00 | 0.00 | 0.00 | 27 | 1009.3 |
| 20260505211554 | 77 | 360 | 6.0 | 17.0 | 0.00 | 0.00 | 0.00 | 27 | 1009.7 |
| 20260505210054 | 77 | 143 | 9.0 | 20.0 | 0.00 | 0.00 | 0.00 | 27 | 1009.7 |
| 20260505204555 | 77 | 360 | 7.0 | 14.0 | 0.00 | 0.00 | 0.00 | 27 | 1009.8 |
| 20260505203100 | 76 | 138 | 10.0 | 24.0 | 0.00 | 0.00 | 0.00 | 29 | 1009.9 |
| 20260505201549 | 77 | 275 | 0.0 | 14.0 | 0.00 | 0.00 | 0.00 | 30 | 1010.0 |
| 20260505200049 | 76 | 288 | 2.0 | 15.0 | 0.00 | 0.00 | 0.00 | 30 | 1010.1 |
| 20260505194550 | 75 | 100 | 0.0 | 11.0 | 0.00 | 0.00 | 0.00 | 32 | 1010.4 |
| 20260505193048 | 75 | 360 | 11.0 | 16.0 | 0.00 | 0.00 | 0.00 | 31 | 1010.4 |
| 20260505191607 | 76 | 173 | 0.0 | 14.0 | 0.00 | 0.00 | 0.00 | 32 | 1010.7 |
| 20260505190043 | 73 | 189 | 1.0 | 7.0 | 0.00 | 0.00 | 0.00 | 34 | 1010.9 |
| 20260505184542 | 74 | 136 | 0.0 | 5.0 | 0.00 | 0.00 | 0.00 | 34 | 1010.9 |
| 20260505183042 | 74 | 360 | 0.0 | 9.0 | 0.00 | 0.00 | 0.00 | 33 | 1011.0 |
| 20260505181539 | 73 | 360 | 0.0 | 6.0 | 0.00 | 0.00 | 0.00 | 36 | 1011.0 |
| 20260505180051 | 73 | 140 | 1.0 | 12.0 | 0.00 | 0.00 | 0.00 | 35 | 1011.0 |
| 20260505174548 | 72 | 360 | 0.0 | 5.0 | 0.00 | 0.00 | 0.00 | 35 | 1011.0 |
| 20260505173037 | 73 | 360 | 1.0 | 4.0 | 0.00 | 0.00 | 0.00 | 36 | 1011.0 |
| 20260505171533 | 0 | 0.0 | 0.0 | 0.00 | 0.00 | 0.00 | 1010.8 | ||
| 20260505170028 | 0 | 0.0 | 0.0 | 0.00 | 0.00 | 0.00 | 1011.0 | ||
| 20260505164526 | 0 | 0.0 | 0.0 | 0.00 | 0.00 | 0.00 | 1010.9 | ||
| 20260505163019 | 0 | 0.0 | 0.0 | 0.00 | 0.00 | 0.00 | 1011.0 | ||
| 20260505161515 | 0 | 0.0 | 0.0 | 0.00 | 0.00 | 0.00 | 1010.7 | ||
| 20260505153007 | 0 | 0.0 | 0.0 | 0.00 | 0.00 | 0.00 | 1010.4 | ||
| 20260505151558 | 0 | 0.0 | 0.0 | 0.00 | 0.00 | 0.00 | 1010.3 | ||
| 20260505124516 | 0 | 0.0 | 0.0 | 0.00 | 0.00 | 0.00 | 1009.8 | ||
| 20260505123022 | 0 | 0.0 | 0.0 | 0.00 | 0.00 | 0.00 | 1009.7 | ||
| 20260505121506 | 0 | 0.0 | 0.0 | 0.00 | 0.00 | 0.00 | 1009.7 |